This demonstration page uses our WeatherBlox Daily Observations layout. Learn more.

Left ArrowRight Arrow

Hourly Observations for November 25, 2022

Temp ( °F °C ) Dew Point ( °F °C ) Humidity (%) Winds ( mph kmh ) Pressure ( in mb ) Visibility ( mi km ) Precip ( " mm )
12:05 am 00:05 Cloudy with Light Rain 44 6.7 43 6.1 96 96 NNE 10 17 30.29 1026 2 3 0.01 0.13
12:28 am 00:28 Cloudy with Light Rain 44 6.7 43 6.1 96 96 NNE 12 19 30.30 1026 3 5 0.01 0.25
12:40 am 00:40 Cloudy with Mist and Fog 44 6.7 43 6.1 96 96 NNE 13 20 30.29 1026 3 4 0.01 0.25
12:53 am 00:53 Cloudy with Light Rain 44 6.7 43 6.1 96 96 NE 16 26 30.21 1023 3 4 0.01 0.25
1:15 am 01:15 Cloudy with Light Rain 44 6.7 43 6.1 96 96 NE 15 24 30.29 1026 3 5 0.02 0.51
1:53 am 01:53 Cloudy with Light Rain 43 6.1 42 5.6 97 97 NNE 16 26 30.22 1023 6 10 0.05 1.27
2:23 am 02:23 Cloudy with Light Rain 42 5.6 40 4.4 92 92 NNE 15 24 30.31 1026 8 13 0.01 0.25
2:53 am 02:53 Cloudy 42 5.6 40 4.4 92 92 NNE 15 24 30.22 1023 8 13 0.02 0.51
3:53 am 03:53 Cloudy 41 5 38 3.3 89 89 NNE 18 30 30.22 1023 10 16 0.01 0.13
4:53 am 04:53 Cloudy 41 5 36 2.2 82 82 NNE 16 26 30.21 1023 10 16 0.00 0.00
5:53 am 05:53 Cloudy 41 5 36 2.2 82 82 NNE 15 24 30.22 1024 10 16 0.00 0.00
6:53 am 06:53 Cloudy 40 4.4 37 2.8 89 89 NNE 12 19 30.23 1024 8 13 0.01 0.25
7:53 am 07:53 Cloudy 40 4.4 37 2.8 89 89 NNE 17 28 30.24 1024 8 13 0.01 0.25
8:28 am 08:28 Cloudy with Light Rain 39 3.9 37 2.8 93 93 NNE 15 24 30.31 1026 6 10 0.01 0.25
8:41 am 08:41 Cloudy 39 3.9 37 2.8 93 93 NNE 20 31 30.32 1027 7 11 0.01 0.25
8:53 am 08:53 Cloudy 39 3.9 37 2.8 93 93 NNE 21 33 30.23 1024 8 13 0.01 0.25
8:58 am 08:58 Cloudy 39 3.9 37 2.8 93 93 NNE 20 31 30.31 1026 9 14 0.00 0.00
9:27 am 09:27 Cloudy 40 4.4 37 2.8 89 89 NE 20 31 30.31 1027 9 14 0.00 0.00
9:53 am 09:53 Cloudy 40 4.4 37 2.8 89 89 NE 17 28 30.24 1024 8 13 0.00 0.00
10:07 am 10:07 Cloudy 40 4.4 37 2.8 89 89 NE 20 31 30.32 1027 8 13 0.00 0.00
10:53 am 10:53 Cloudy with Light Rain 39 3.9 37 2.8 93 93 NE 16 26 30.25 1025 4 6 0.01 0.25
11:06 am 11:06 Cloudy with Rain 39 3.9 37 2.8 93 93 NE 16 26 30.33 1027 2 3 0.03 0.76
11:21 am 11:21 Cloudy with Light Rain 39 3.9 37 2.8 93 93 NNE 10 17 30.31 1026 3 5 0.04 1.02
11:27 am 11:27 Cloudy with Light Rain 39 3.9 37 2.8 93 93 NNE 18 30 30.32 1027 3 4 0.05 1.27
11:53 am 11:53 Cloudy with Rain 39 3.9 37 2.8 93 93 NNE 17 28 30.22 1023 2 3 0.09 2.29
12:02 pm 12:02 Cloudy with Rain 39 3.9 37 2.8 93 93 NE 15 24 30.31 1026 2 3 0.01 0.25
12:14 pm 12:14 Cloudy with Light Rain 39 3.9 37 2.8 93 93 NNE 15 24 30.30 1026 2 3 0.03 0.76
12:21 pm 12:21 Cloudy with Light Rain 39 3.9 37 2.8 93 93 NNE 18 30 30.30 1026 3 4 0.04 1.02
12:37 pm 12:37 Cloudy with Light Rain 39 3.9 37 2.8 93 93 NNE 16 26 30.29 1026 3 5 0.04 1.02
12:53 pm 12:53 Cloudy with Light Rain 39 3.9 37 2.8 93 93 NNE 14 22 30.20 1023 4 6 0.04 1.02
1:53 pm 13:53 Cloudy with Light Rain 39 3.9 37 2.8 93 93 N 15 24 30.16 1021 6 10 0.01 0.25
2:53 pm 14:53 Cloudy with Light Rain 38 3.3 36 2.2 92 92 N 16 26 30.14 1021 4 6 0.03 0.76
3:53 pm 15:53 Cloudy with Light Rain 38 3.3 36 2.2 92 92 N 13 20 30.15 1021 5 8 0.01 0.25
4:53 pm 16:53 Cloudy with Rain 37 2.8 35 1.7 92 92 N 13 20 30.16 1022 3 4 0.10 2.54
5:01 pm 17:01 Cloudy with Light Rain 37 2.8 35 1.7 92 92 N 12 19 30.25 1024 5 8 0.01 0.25
5:39 pm 17:39 Cloudy with Light Snow 35 1.7 33 0.6 92 92 N 10 17 30.26 1025 2 3 0.13 3.30
5:53 pm 17:53 Cloudy with Light Snow 34 1.1 33 0.6 96 96 N 8 13 30.18 1022 3 4 0.17 4.32
6:07 pm 18:07 Cloudy with Light Snow 33 0.6 33 0.6 100 100 NNW 6 9 30.29 1026 2 2 0.03 0.76
6:45 pm 18:45 Cloudy with Light Snow 33 0.6 32 0 96 96 N 7 11 30.28 1025 1 2 0.09 2.29
6:53 pm 18:53 Cloudy with Light Snow 33 0.6 32 0 96 96 N 7 11 30.18 1022 2 2 0.10 2.54
7:53 pm 19:53 Cloudy with Light Snow 33 0.6 32 0 96 96 N 10 17 30.16 1021 2 3 0.06 1.52
7:58 pm 19:58 Cloudy with Light Snow 33 0.6 32 0 96 96 N 8 13 30.27 1025 3 5 0.01 0.25
8:43 pm 20:43 Cloudy with Light Snow 33 0.6 32 0 96 96 NNE 10 17 30.27 1025 3 4 0.01 0.25
8:53 pm 20:53 Cloudy with Light Snow 33 0.6 32 0 96 96 NNE 9 15 30.16 1021 3 4 0.01 0.25
9:03 pm 21:03 Cloudy with Mist and Fog 33 0.6 32 0 96 96 NNE 8 13 30.26 1025 4 6 0.01 0.13
9:53 pm 21:53 Cloudy with Mist and Fog 33 0.6 32 0 96 96 NW 3 6 30.14 1021 4 6 0.01 0.13
10:24 pm 22:24 Cloudy with Mist and Fog 33 0.6 33 0.6 100 100 W 3 6 30.27 1025 3 4 0.00 0.00
10:41 pm 22:41 Cloudy with Mist and Fog 33 0.6 32 0 96 96 W 3 6 30.27 1025 2 3 0.01 0.25
10:53 pm 22:53 Cloudy with Mist and Fog 33 0.6 32 0 96 96 W 3 6 30.16 1022 2 2 0.01 0.25
11:08 pm 23:08 Cloudy with Mist and Fog 33 0.6 32 0 96 96 Calm 30.26 1025 2 3 0.01 0.25
11:24 pm 23:24 Cloudy with Mist and Fog 33 0.6 32 0 96 96 WNW 5 7 30.26 1025 2 3 0.01 0.25
11:36 pm 23:36 Cloudy with Mist and Fog 33 0.6 32 0 96 96 NW 6 9 30.24 1024 3 4 0.01 0.25
11:53 pm 23:53 Cloudy with Mist and Fog 33 0.6 32 0 96 96 NW 6 9 30.12 1020 3 5 0.01 0.25

Powered by AerisWeather